Theta_e
293 289 285 290 291 289 288 286 286 289 291 290 290 291 294 297 296 296 297 296 296 296 297 297 298 298 297 297 298 299 300 301 302 302 302 302 303 305 306 306 306 306 306 306
289 286 291 293 290 288 287 285 285 289 291 290 289 290 295 295 295 295 294 295 295 296 296 295 295 296 297 296 298 299 301 301 301 302 301 303 304 306 307 305 305 306 306 307
287 289 292 290 288 287 286 285 285 286 289 289 287 289 291 293 293 293 294 294 295 295 295 295 294 294 295 296 298 300 301 301 301 302 302 303 306 308 306 305 304 305 305 306
288 291 289 288 287 287 284 289 288 288 286 283 287 282 285 291 290 292 292 293 293 294 295 294 293 293 294 296 299 300 301 301 301 302 302 302 303 302 304 305 305 305 306 307
285 288 288 287 288 290 287 290 288 287 285 283 284 282 287 288 288 290 291 292 292 293 293 293 293 293 295 297 298 299 300 300 301 301 302 303 302 304 306 305 303 304 306 307
285 289 289 289 289 290 290 287 286 284 283 276 280 281 285 284 285 286 288 289 292 292 292 292 292 294 295 297 298 299 299 299 300 301 301 302 302 303 304 303 303 305 306 308
284 285 288 289 287 289 287 286 280 277 275 278 281 279 285 285 284 285 285 287 289 292 291 291 291 292 294 296 297 298 298 298 299 300 300 301 302 302 303 303 304 304 306 308
279 277 286 289 288 286 284 285 280 274 273 276 281 278 283 284 286 286 286 286 287 289 291 291 291 292 294 295 296 298 298 298 299 299 300 300 301 302 303 304 305 306 307 309
280 280 287 288 288 288 285 283 284 278 272 274 278 282 286 285 285 284 284 284 283 285 287 289 290 291 293 295 296 296 297 298 298 298 299 299 300 301 302 304 307 309 310 310
287 280 284 286 289 287 285 287 281 279 270 270 275 278 279 281 281 282 282 281 282 283 284 286 288 289 290 292 294 295 296 296 297 298 298 299 299 300 301 302 306 307 309 310
291 287 282 284 284 284 284 282 282 283 280 274 273 277 282 280 281 280 281 282 281 282 282 284 285 286 286 288 289 291 293 295 296 297 297 298 299 300 300 301 303 305 306 309
292 289 281 281 284 286 285 284 284 278 276 277 279 278 283 282 281 281 281 281 282 282 282 282 283 284 284 284 285 286 288 290 293 296 296 297 298 299 299 300 301 303 305 308
291 285 280 282 285 284 283 284 284 284 283 278 277 277 283 282 281 281 280 281 281 281 281 282 282 282 282 282 282 283 285 287 289 291 295 296 296 297 298 299 300 301 304 306
294 287 282 279 280 283 281 282 284 285 280 280 280 277 279 281 279 280 280 281 281 281 281 281 281 281 282 282 281 282 283 285 287 290 292 294 295 296 297 299 299 300 302 304
288 282 284 286 286 287 284 283 283 284 283 282 281 281 280 280 279 279 280 281 280 280 280 280 280 280 281 281 281 281 282 283 284 286 288 290 292 294 295 296 297 299 300 302
287 282 283 279 285 284 284 286 287 286 285 284 283 279 281 281 282 280 280 280 279 279 279 280 280 280 280 280 280 280 282 282 283 282 283 284 285 287 291 293 295 296 298 299
279 281 277 274 281 281 279 277 279 282 279 279 281 278 282 281 280 280 280 280 279 280 280 279 279 279 280 279 280 279 281 282 281 281 281 281 282 283 284 286 290 293 295 297
276 275 279 271 274 269 277 280 281 278 278 280 279 279 280 281 281 282 282 280 280 280 279 279 280 280 280 281 280 280 281 281 280 279 280 280 280 281 282 284 285 288 291 294
279 277 270 271 266 275 278 276 277 277 275 277 277 278 279 282 282 280 282 281 280 279 279 279 279 279 279 278 278 279 279 279 278 279 278 279 280 280 281 281 282 284 286 289
281 281 271 274 269 264 274 277 279 279 272 277 278 277 277 281 276 278 280 280 279 278 277 277 277 277 277 276 276 276 276 276 275 276 277 278 279 280 280 281 282 283 284 285
270 271 269 270 261 266 275 277 279 271 271 278 278 278 277 277 277 279 279 278 278 277 276 276 275 275 275 275 275 274 274 273 274 275 276 277 278 279 280 281 282 283 284 285
263 262 259 260 261 264 276 276 271 273 278 278 278 277 277 277 278 277 276 276 275 274 275 275 273 274 274 274 273 272 272 273 274 273 274 275 276 278 279 279 280 281 283 283
263 266 264 267 266 269 275 275 275 276 276 278 278 277 276 276 275 275 274 274 274 273 274 273 272 272 273 272 272 271 271 272 271 271 272 273 275 277 277 278 278 279 281 281
265 271 266 267 265 270 270 274 276 277 277 279 278 277 275 274 274 275 275 274 273 273 272 271 270 270 270 270 270 270 270 270 269 269 270 272 273 274 275 277 277 278 278 278
267 270 266 266 270 272 269 274 278 279 278 276 274 274 273 273 273 273 272 272 271 270 270 269 268 268 268 268 268 268 269 267 266 267 269 270 271 272 273 274 275 276 277 279
270 268 266 265 270 272 275 278 279 278 277 275 273 270 271 272 272 270 270 270 269 268 267 267 267 266 266 265 265 265 264 264 264 264 266 268 268 269 271 271 272 275 277 278
Wind_Speed
0 4 6 4 4 2 5 2 2 0 2 2 4 9 16 14 9 14 12 9 8 7 4 6 5 5 8 8 10 10 10 7 6 2 2 1 1 1 1 2 3 1 1 1
4 6 7 4 3 2 3 2 2 3 2 0 6 18 13 9 6 5 8 8 7 7 6 6 5 3 4 10 10 9 8 8 4 2 2 1 2 1 2 1 1 1 1 1
6 2 9 8 4 5 2 4 3 4 4 3 6 10 7 4 4 6 8 6 4 6 7 5 5 3 5 8 9 8 7 7 5 4 3 1 1 1 1 1 1 1 1 1
4 2 7 4 4 5 3 5 5 3 3 3 3 7 7 6 9 6 10 12 8 9 7 4 3 3 5 5 6 6 6 6 4 5 2 1 1 1 1 0 1 1 1 1
4 5 6 5 6 8 5 5 5 3 4 2 3 3 9 4 5 10 12 15 14 8 7 6 3 3 4 6 5 5 6 6 3 3 2 1 2 1 2 0 1 1 1 2
2 1 2 3 4 2 8 6 6 4 3 2 2 3 6 5 7 8 12 15 14 11 9 6 5 4 5 4 5 4 5 5 3 2 3 2 2 2 1 1 1 1 1 1
2 1 1 2 7 5 2 4 2 4 3 5 2 2 6 4 4 8 13 15 16 11 8 6 5 5 4 3 4 4 3 3 3 1 1 2 1 2 3 2 2 2 1 2
6 2 8 5 5 8 6 3 6 7 4 2 3 6 3 5 4 8 11 12 16 17 13 8 6 4 4 2 2 2 2 1 2 1 2 1 1 1 1 2 2 2 2 2
5 2 2 2 2 3 6 4 4 8 3 4 3 4 3 4 12 15 15 16 17 17 16 15 9 7 6 4 4 4 3 3 1 2 2 2 2 3 2 2 3 2 1 1
1 3 2 0 3 3 3 6 4 3 3 4 4 5 3 6 11 13 15 15 14 15 16 15 14 13 9 6 5 6 5 5 4 3 3 3 3 3 3 2 3 3 3 2
1 2 2 1 5 8 3 2 4 4 5 5 3 5 1 3 4 7 9 11 13 13 13 13 13 13 12 12 12 9 7 6 6 4 3 4 4 4 3 3 4 4 3 4
1 2 4 4 1 2 1 5 5 5 5 2 2 4 4 6 5 5 7 9 10 11 11 11 12 12 14 14 13 12 12 11 9 6 4 4 4 4 4 4 4 4 5 4
5 3 3 2 1 2 4 4 3 3 3 6 6 3 3 4 5 5 6 7 9 10 12 12 13 13 13 14 13 13 13 13 12 11 6 5 4 4 5 5 5 5 5 5
1 2 2 4 2 1 3 3 4 4 3 3 5 6 6 3 4 5 6 7 7 9 11 11 12 12 12 12 13 13 14 14 14 11 10 6 5 5 5 5 5 5 5 5
3 2 2 2 2 2 2 3 2 8 5 7 1 4 4 3 3 3 4 7 9 12 13 13 12 12 12 13 14 13 13 14 14 13 13 13 11 7 5 5 5 6 5 6
4 2 2 2 3 2 2 1 2 2 4 2 4 4 2 3 5 5 5 6 9 10 11 11 12 13 12 13 13 13 13 14 14 13 13 12 13 12 11 9 7 5 6 7
2 2 3 1 2 3 3 2 3 1 5 4 2 4 1 3 5 6 6 6 7 9 9 10 11 11 12 12 12 13 13 12 12 13 13 13 13 13 13 12 10 8 8 6
2 3 2 2 3 1 3 1 2 7 4 4 6 4 3 3 6 6 7 7 8 8 9 10 10 11 12 11 12 12 11 11 11 12 13 14 14 13 13 12 11 11 9 9
1 1 1 3 2 0 3 2 1 1 3 1 4 3 4 3 7 7 7 6 6 7 7 7 8 9 9 11 12 11 11 11 12 14 14 14 14 14 14 13 14 12 11 10
3 2 4 2 3 7 1 2 1 2 2 2 2 4 4 5 2 2 6 5 5 6 6 8 9 8 10 11 12 11 11 11 14 15 15 13 13 13 13 13 14 13 11 12
2 3 4 3 1 6 2 1 2 4 3 4 3 2 3 2 1 1 4 5 5 6 7 8 8 8 9 11 12 12 12 14 14 14 13 13 12 13 11 12 11 13 12 11
4 5 4 3 3 7 1 2 5 5 1 4 3 3 2 1 2 3 4 5 5 6 7 8 8 8 8 10 11 12 12 13 13 14 14 13 12 10 10 12 11 11 10 11
2 6 4 7 6 4 2 2 1 3 4 3 4 4 3 2 1 2 2 2 3 4 5 7 7 8 7 8 10 11 12 14 15 13 12 12 12 10 10 11 12 10 10 9
3 3 2 4 4 4 4 2 3 3 4 4 3 4 3 2 3 3 2 2 3 4 5 6 7 8 8 8 9 9 11 12 11 12 12 11 11 12 10 8 8 9 9 9
5 5 4 5 4 3 6 5 5 4 4 2 2 3 3 1 3 2 2 2 2 4 4 6 6 8 9 9 10 9 10 10 11 11 11 11 9 10 11 9 8 8 9 9
6 8 6 7 7 5 3 5 6 7 7 7 6 2 2 4 4 2 3 2 3 4 5 5 6 7 9 9 11 10 6 9 10 12 9 9 10 9 9 10 11 14 18 20
Wind_Direction
11 122 199 181 177 100 118 94 55 8 24 312 263 279 281 285 267 278 295 294 313 313 348 6 32 106 111 114 133 142 137 140 133 119 122 117 125 62 37 12 16 53 81 123
57 226 183 169 162 121 63 37 301 296 19 84 339 295 275 280 276 291 311 324 335 342 356 30 42 62 131 134 135 135 133 144 136 106 123 130 157 171 97 12 26 40 355 318
166 193 146 139 155 169 191 191 180 213 332 63 331 298 339 300 29 1 12 336 3 15 357 37 61 85 111 131 138 135 132 137 129 116 108 94 182 155 125 32 347 349 295 297
230 151 132 113 196 136 176 195 164 162 93 236 14 284 310 313 345 35 18 12 0 1 11 35 82 93 110 97 102 109 120 120 116 127 141 164 156 141 122 116 278 281 254 232
224 149 139 141 206 166 208 125 145 116 112 32 338 85 270 10 2 0 359 355 353 8 12 32 65 112 96 106 113 121 117 107 116 132 142 141 129 123 133 197 253 248 245 237
98 350 169 156 64 111 156 86 64 57 90 55 277 133 287 17 326 330 346 352 355 5 14 29 45 78 74 91 107 118 113 104 116 125 130 127 154 171 193 189 209 242 218 237
36 316 16 124 78 38 30 105 9 358 11 214 24 45 251 40 4 5 350 349 352 2 15 19 54 75 61 83 107 101 92 100 113 132 153 153 164 191 219 227 218 215 216 217
147 243 182 196 177 172 195 180 160 198 195 237 88 229 256 108 46 28 24 6 8 8 7 20 39 75 80 26 31 58 96 96 135 214 259 226 245 242 233 237 239 233 221 226
139 225 307 68 117 129 187 187 161 105 38 49 223 280 264 47 20 19 17 19 13 5 5 11 31 21 10 26 342 335 333 314 325 275 284 270 250 254 257 273 264 282 228 222
152 116 345 8 117 30 148 167 83 6 147 234 284 285 234 356 354 3 9 13 9 10 11 14 15 19 6 8 348 344 344 325 321 302 266 270 260 252 263 271 272 277 293 263
92 71 317 142 208 166 122 186 54 127 155 169 169 250 46 103 12 7 7 10 10 11 12 15 16 13 10 13 11 1 355 334 321 316 295 280 278 263 254 253 258 266 282 274
43 110 172 191 64 20 64 199 171 141 217 224 142 262 103 98 59 18 14 19 14 10 10 19 20 17 15 10 6 4 2 356 336 312 301 286 286 287 278 270 265 264 262 273
171 179 119 59 30 14 215 196 176 114 105 193 146 232 127 94 63 27 18 18 25 18 16 15 21 21 14 4 2 2 1 355 343 332 314 299 282 273 265 262 263 264 263 259
79 155 169 171 113 349 167 206 201 175 179 164 223 146 208 88 45 20 22 24 29 30 25 15 19 19 12 8 360 1 1 358 349 343 333 323 312 295 280 279 272 263 264 263
48 82 79 85 136 77 40 13 341 226 229 228 324 131 118 108 98 59 28 34 33 30 25 17 12 10 8 7 0 0 3 360 355 2 11 1 347 331 311 295 284 282 274 260
345 83 48 61 41 197 196 321 283 283 315 292 109 129 127 133 103 68 50 39 33 21 16 10 9 7 5 5 359 353 359 1 357 1 6 359 356 353 351 338 317 295 282 278
46 87 62 226 278 116 172 1 316 80 43 6 251 55 104 115 88 60 61 58 40 22 13 8 5 2 1 1 354 350 351 355 359 359 1 0 355 351 347 338 332 317 294 280
76 46 58 226 4 343 121 93 37 111 74 63 94 79 59 93 105 84 48 37 29 18 12 5 359 356 358 354 354 345 350 356 354 359 0 356 353 347 342 339 339 333 322 300
206 54 64 137 203 336 179 7 69 19 133 24 114 65 20 176 142 86 49 46 35 19 14 6 3 359 2 0 349 347 356 357 353 359 354 349 345 341 340 340 336 331 324 317
112 13 113 152 158 207 144 176 151 246 252 151 87 61 20 141 193 84 31 46 34 26 17 14 4 2 8 4 355 4 5 1 358 352 345 336 337 337 334 334 333 329 325 315
39 7 175 188 199 292 226 297 145 114 205 157 127 87 36 78 80 35 33 25 33 25 13 17 7 9 8 1 356 3 360 2 349 341 338 338 336 331 326 328 327 327 328 321
161 129 195 68 78 275 202 127 153 201 73 121 111 124 118 104 5 19 358 4 17 14 11 11 1 356 3 4 357 353 354 345 342 339 335 334 333 330 329 325 326 325 326 325
300 181 190 173 214 250 288 194 220 137 137 157 160 164 169 226 209 307 311 354 8 15 4 3 351 343 354 2 353 343 341 339 337 329 328 326 324 327 327 329 326 326 330 327
290 213 210 42 288 235 252 239 173 161 159 158 156 160 168 239 314 317 329 4 1 358 354 346 339 336 330 342 336 325 326 333 325 318 319 319 320 323 321 320 317 318 321 321
199 127 181 267 262 344 283 233 195 191 148 133 111 167 187 212 277 261 299 331 335 316 325 328 323 322 319 326 320 319 321 323 315 311 312 313 313 312 313 307 307 307 300 301
187 184 167 221 204 161 193 197 186 182 198 193 174 185 207 200 228 170 233 248 280 306 317 311 308 303 306 311 310 310 312 310 312 309 308 309 307 310 305 307 307 298 299 302